Flag for U.S.A. Weather past 2 weeks in San Jose, California, U.S.A.

Now
67 °F

Scattered clouds.


Feels Like: 67 °F
Forecast: 60 / 78 °F
Wind: No wind

Location: San Jose International Airport

Current Time: Sep 20, 2014 at 11:35:41 AM

Latest Report: Sep 20, 2014 at 10:53 AM


Visibility: 8 mi

Pressure: 29.94 "Hg

Humidity: 79%

Dew point: 60 °F

Location of San JoseLocation

Historic Weather in San Jose — Graph

°F

San Jose temperature yesterday

Maximum temperature yesterday: 76 °F (at 1:53 PM)
Minimum temperature yesterday: 63 °F (at 5:53 AM)
Average temperature yesterday: 68 °F

Past Weeks' High & Low Weather Summary

 TemperatureHumidityPressure
High88 °F (Sep 10, 3:53 PM)97% (Sep 10, 5:53 AM)30.00 "Hg (Sep 10, 5:53 AM)
Low55 °F (Sep 9, 2:53 AM)22% (Sep 11, 2:53 PM)29.73 "Hg (Sep 17, 4:53 PM)
Average67 °F71%29.86 "Hg
* Reported Sep 5 5:53 AM — Sep 20 5:53 AM, San Jose, Weather by CustomWeather, © 2014

Note: Actual official high and low records may vary slightly from our data, if they occured in-between our weather recording intervals... More about our weather records

Advertising

San Jose weather history for previous 24 hours

 ConditionsComfort  
Time TempWeatherWind HumidityBarometerVisibility
5:53 AM
Sep 20
64 °FOvercast.No wind87%29.88 "Hg10 mi
4:53 AM62 °FPassing clouds.No wind90%29.88 "Hg10 mi
3:53 AM63 °FOvercast.5 mph87%29.88 "Hg10 mi
2:53 AM65 °FOvercast.No wind87%29.88 "Hg10 mi
2:03 AM64 °FPassing clouds.No wind94%29.90 "Hg8 mi
1:53 AM63 °FPassing clouds.No wind93%29.89 "Hg9 mi
12:53 AM64 °FClear.5 mph90%29.89 "Hg10 mi
11:53 PM
Sep 19
65 °FPassing clouds.No wind87%29.89 "Hg10 mi
10:53 PM65 °FPassing clouds.No wind87%29.90 "Hg10 mi
9:53 PM66 °FPassing clouds.8 mph87%29.89 "Hg10 mi
8:53 PM66 °FClear.6 mph84%29.87 "Hg10 mi
7:53 PM67 °FPassing clouds.6 mph81%29.86 "Hg10 mi
6:53 PM69 °FPassing clouds.10 mph79%29.85 "Hg10 mi
5:53 PM72 °FScattered clouds.14 mph71%29.84 "Hg10 mi
4:53 PM75 °FScattered clouds.13 mph64%29.84 "Hg10 mi
3:53 PM75 °FPassing clouds.14 mph64%29.84 "Hg10 mi
2:53 PM75 °FPassing clouds.12 mph62%29.85 "Hg10 mi
1:53 PM76 °FPassing clouds.12 mph56%29.86 "Hg10 mi
12:53 PM75 °FPassing clouds.7 mph58%29.88 "Hg10 mi
11:53 AM73 °FPassing clouds.7 mph62%29.89 "Hg10 mi
Weather by CustomWeather, © 2014

See weather overviewHow to use our weather pages